Airports & Charts

SJU | TJSJ – Luis Munoz Marin International Airport

San Juan, Puerto RicoAirspace Class: Class C

TJSJ 191556Z 08014KT 10SM TS SCT024CB SCT040 BKN080 29/26 A3005 RMK AO2 RAE43 TSB54 SLP176 OCNL LTGCG SW-NW TS SW-NW MOV W VCSH S SW-NW VIS LWR SW-NW P0002 T02940256

 

Flight Planner at SkyVector.com

Click Chart to Enlarge (Opens in Same Window)

 

AIRAC Cycle: 1501

AD – Airport Diagram
AIRPORT DIAGRAM  
SIDs – Standard Instrument Departures
ACONY ONE (RNAV) RNAV Turbojet  
CRSTL ONE RNAV  
GANBO ONE (RNAV) RNAV Turbojet  
GLADA TWO (RNAV) RNAV Turbojet  
HAMAR ONE (RNAV) RNAV Prop/Turboprop  
JAAWS NINE   
JETSS ONE   
SNGRA ONE (RNAV) RNAV Prop/Turboprop  
VERMO FIVE   
NOTE: Special Take-Off Minimums/Departure Procedures apply   
STARs – Standard Terminal Arrivals
BEANO THREE (RNAV) RNAV Turbojet  
CHAKA FOUR (RNAV) RNAV Prop/Turboprop  
JOSHE THREE (RNAV) (Cont.) RNAV Turbojet  
SAALR TWO (RNAV) RNAV Turbojet  
TROCO THREE (RNAV) RNAV Turbojet  
IAPs – Instrument Approach Procedures
ILS OR LOC RWY 08   
ILS OR LOC RWY 10   
RNAV (GPS) RWY 08 RNAV  
RNAV (GPS) RWY 10 RNAV    
RNAV (GPS) RWY 26 RNAV    
VOR OR TACAN RWY 08   
VOR OR TACAN RWY 10   
VOR OR TACAN RWY 26   
NDB RWY 08   
BRIDGE VISUAL RWY 10   
LAGOON VISUAL RWY 08   
NOTE: Special Alternate Minimums apply   

 

 

 

SXM | TNCM – Princess Juliana International Airport

Philipsburg, St. MaartenAirspace Class: Class C

TNCM 191600Z 10014KT 070V160 9999 SCT018 31/24 Q1018 A3007 NOSIG

 

Flight Planner at SkyVector.com

Click Chart to Enlarge (Opens in Same Window)

 

Chart Packet
SXM Chart Packet  

 

 

STT | TIST – Cyril E King Airport

Charlotte Amalie West, St. Thomas, U.S.V.I.Airspace Class: Class C

TIST 191553Z 11015G22KT 10SM FEW030 31/24 A3005 RMK AO2 SLP178 T03110244

 

Flight Planner at SkyVector.com

 Click Chart to Enlarge (Opens in Same Window)

 

AIRAC Cycle: 1501

AD – Airport Diagram
AIRPORT DIAGRAM  
SIDs – Standard Instrument Departures
PALCO SIX   
NOTE: Special Take-Off Minimums/Departure Procedures apply   
IAPs – Instrument Approach Procedures
ILS RWY 10   
RNAV (GPS) RWY 10 RNAV  
VOR-A   
NOTE: Special Alternate Minimums apply   

 

 

STX | TISX – Henry E Rohlsen Airport

Christiansted, St. Croix, U.S.V.I.Airspace Class: Class D

TISX 191553Z 09016G22KT 10SM FEW018 SCT026 31/26 A3007 RMK AO2 SLP179 T03060261

 

Flight Planner at SkyVector.com

Click Chart to Enlarge (Opens in Same Window)

 

AIRAC Cycle: 1501

AD – Airport Diagram
AIRPORT DIAGRAM  
SIDs – Standard Instrument Departures
HAMILTON SEVEN Prop/Turboprop  
SNOOZ THREE Prop/Turboprop  
NOTE: Special Take-Off Minimums/Departure Procedures apply   
IAPs – Instrument Approach Procedures
ILS OR LOC RWY 10   
RNAV (GPS) RWY 10 RNAV   
RNAV (GPS) RWY 28 RNAV    
VOR RWY 28   
NOTE: Special Alternate Minimums apply   

 

 

BQN | TJBQ – Rafael Hernandez Airport

Aguadilla, Puerto RicoAirspace Class: Class D

TJBQ 191550Z 08016G24KT 10SM SCT021 31/24 A3006 RMK LTG DSNT E & SW

 

Flight Planner at SkyVector.com

Click Chart to Enlarge (Opens in Same Window)

 

AIRAC Cycle: 1501

AD – Airport Diagram
AIRPORT DIAGRAM
IAPs – Instrument Approach Procedures
RNAV (GPS) RWY 08 RNAV     
RNAV (GPS) RWY 26 RNAV   
VOR/DME OR TACAN RWY 08   
VOR/DME OR TACAN RWY 26   
VOR RWY 08   
NOTE: Special Take-Off Minimums/Departure Procedures apply   

 

 

SIG | TJIG – Fernando Luis Ribas Dominicci Airport

San Juan, Puerto RicoAirspace Class: Class D

TJIG 191546Z 09016KT 6SM TSRA SCT025 BKN055 BKN070 28/25 A3008 RMK OCNL LTGCG SW TSB40 TS SW MOV W

 

Flight Planner at SkyVector.com

Click Chart to Enlarge (Opens in Same Window)

 

AIRAC Cycle: 1501

AD – Airport Diagram
AIRPORT DIAGRAM
IAPs – Instrument Approach Procedures
RNAV (GPS) RWY 09 RNAV     

 

 

AXA | TQPF – Clayton J Lloyd International Airport

The Valley, AnguillaAirspace Class: Class D

TQPF 191600Z 10014KT 9999 FEW018 29/24 Q1019

 

Flight Planner at SkyVector.com

Click Chart to Enlarge (Opens in Same Window)

 

Chart Packet
AXA Chart Packet  

 

 

SBH | TFFJ – St. Barthélemy Airport

St.Jean, St. BarthélemyAirspace Class: Class E

TNCM 191600Z 10014KT 070V160 9999 SCT018 31/24 Q1018 A3007 NOSIG

 

Flight Planner at SkyVector.com

Click Chart to Enlarge (Opens in Same Window)

 

Chart Packet
SBH Chart Packet  

 

 

SFG | TFFG – Grand Case Airport

Grand Case, St. MartinAirspace Class: Class E

TNCM 191600Z 10014KT 070V160 9999 SCT018 31/24 Q1018 A3007 NOSIG

 

Flight Planner at SkyVector.com

Click Chart to Enlarge (Opens in Same Window)

 

Chart Packet
SFG Chart Packet  

 

 

PSE | TJPS – Mercedita Airport

Ponce, Puerto RicoAirspace Class: Class E

TJPS 080650Z 00000KT 9SM HZ FEW050 24/21 A3007 RMK HZ ALQDS

 

Flight Planner at SkyVector.com

Click Chart to Enlarge (Opens in Same Window) 

 

AIRAC Cycle: 1501

IAPs – Instrument Approach Procedures
RNAV (GPS) RWY 12 RNAV  
RNAV (GPS) RWY 30 RNAV  
VOR-A   
NOTE: Special Take-Off Minimums/Departure Procedures apply   

 

 

MAZ | TJMZ – Eugenio Maria de Hostos Airport

Mayaguez, Puerto RicoAirspace Class: Class E

TJMZ 101550Z 11009KT 10SM SCT050 33/24

 

Flight Planner at SkyVector.com

Click Chart to Enlarge (Opens in Same Window) 

 

AIRAC Cycle: 1501

AD – Airport Diagram
AIRPORT DIAGRAM  
IAPs – Instrument Approach Procedures
RNAV (GPS) RWY 09 RNAV   
VOR RWY 09   
NOTE: Special Alternate Minimums apply   
NOTE: Special Take-Off Minimums/Departure Procedures apply   

 

VQS | TJVQ – Antonio Rivera Rodriguez Airport

Isla de Vieques, Puerto RicoAirspace Class: Class G

TJNR 121353Z AUTO 06008KT 8SM FEW030 SCT036 28/25 A3013 RMK AO2 SLP203 T02830250 $

 

Flight Planner at SkyVector.com

Click Chart to Enlarge (Opens in Same Window) 

 

AIRAC Cycle: 1501

SIDs – Standard Instrument Departures
VEDAS THREE (RNAV) RNAV     
NOTE: Special Take-Off Minimums/Departure Procedures apply   
IAPs – Instrument Approach Procedures
RNAV (GPS) RWY 09 RNAV